�N����,����,�~����,�C��,���x,�C��,����,���ϕ���,�ő�u�ԕ���,�ő厞����,���˗�,�I�_���x,�n�����x,�ő啗���N��,DTYPE
"17/11/06","00:10",0.0,5.6,97.3,1021.1,303.1,1.6,2.2,296.2,0.00,5.2,12.7,"00:03:52",1
"17/11/06","00:20",0.0,5.5,97.7,1021.3,309.8,1.8,2.7,319.2,0.00,5.2,12.5,"00:15:20",1
"17/11/06","00:30",0.0,5.2,97.6,1021.1,292.5,1.5,2.1,310.9,0.00,4.9,12.5,"00:27:52",1
"17/11/06","00:40",0.0,5.1,97.7,1021.1,301.5,1.3,2.4,318.2,0.00,4.8,12.6,"00:34:56",1
"17/11/06","00:50",0.0,5.0,98.5,1020.8,308.3,2.0,2.2,316.7,0.00,4.8,12.3,"00:48:00",1
"17/11/06","01:00",0.0,5.1,97.7,1020.8,307.6,1.7,2.4,323.4,0.00,4.8,12.4,"00:59:28",1
"17/11/06","01:10",0.0,5.0,99.2,1020.6,307.0,1.6,2.0,308.4,0.00,4.9,12.4,"01:05:04",1
"17/11/06","01:20",0.0,5.0,97.9,1020.4,292.8,1.2,1.7,305.7,0.00,4.7,12.2,"01:10:08",1
"17/11/06","01:30",0.0,4.6,98.8,1020.6,301.5,1.6,2.2,317.2,0.00,4.5,12.4,"01:24:24",1
"17/11/06","01:40",0.0,4.7,98.6,1020.1,296.6,1.5,2.5,321.9,0.00,4.5,12.1,"01:39:44",1
"17/11/06","01:50",0.0,4.8,98.3,1020.4,299.5,1.6,2.0,308.3,0.00,4.6,12.1,"01:40:32",1
"17/11/06","02:00",0.0,4.6,97.8,1020.6,305.2,1.7,2.4,317.3,0.00,4.3,11.9,"01:52:08",1
"17/11/06","02:10",0.0,4.4,99.6,1020.6,301.2,1.6,2.4,316.2,0.00,4.4,12.0,"02:09:20",1
"17/11/06","02:20",0.0,4.7,99.0,1020.4,302.8,1.8,2.2,314.1,0.00,4.6,11.9,"02:10:16",1
"17/11/06","02:30",0.0,4.5,98.3,1020.8,296.2,1.2,2.0,315.7,0.00,4.3,11.9,"02:20:32",1
"17/11/06","02:40",0.0,4.4,98.4,1020.4,310.5,2.0,2.6,317.9,0.00,4.2,11.7,"02:33:04",1
"17/11/06","02:50",0.0,4.6,99.0,1020.4,306.3,2.0,2.4,311.5,0.00,4.5,11.9,"02:41:28",1
"17/11/06","03:00",0.0,4.7,99.1,1020.6,307.1,1.7,2.2,319.3,0.00,4.6,11.7,"02:58:32",1
"17/11/06","03:10",0.0,4.4,98.2,1020.6,298.6,1.6,2.0,311.2,0.00,4.2,11.7,"03:05:12",1
"17/11/06","03:20",0.0,4.4,98.7,1020.4,295.6,1.0,1.6,311.8,0.00,4.3,11.6,"03:16:56",1
"17/11/06","03:30",0.0,4.2,98.3,1020.1,298.1,1.5,2.4,322.6,0.00,4.0,11.6,"03:23:20",1
"17/11/06","03:40",0.0,4.1,99.3,1020.4,300.3,1.7,2.5,317.9,0.00,4.0,11.6,"03:38:40",1
"17/11/06","03:50",0.0,4.5,99.0,1020.1,313.7,1.8,2.2,324.1,0.00,4.4,11.6,"03:40:16",1
"17/11/06","04:00",0.0,4.1,98.3,1020.4,290.3,1.3,1.9,311.3,0.00,3.9,11.6,"03:55:28",1
"17/11/06","04:10",0.0,4.3,99.1,1020.4,298.9,1.1,1.8,305.0,0.00,4.2,11.3,"04:08:36",1
"17/11/06","04:20",0.0,4.1,99.1,1020.4,298.2,1.6,2.2,319.3,0.00,4.0,11.5,"04:19:44",1
"17/11/06","04:30",0.0,4.2,99.6,1020.4,308.1,1.8,2.2,309.8,0.00,4.2,11.4,"04:29:36",1
"17/11/06","04:40",0.0,4.2,98.8,1020.4,304.6,1.6,2.0,313.0,0.00,4.1,11.1,"04:30:32",1
"17/11/06","04:50",0.0,4.1,99.8,1020.4,299.6,1.5,2.1,321.4,0.00,4.1,11.2,"04:49:12",1
"17/11/06","05:00",0.0,4.1,99.7,1020.1,303.9,1.7,2.5,316.4,0.00,4.1,11.2,"04:55:52",1
"17/11/06","05:10",0.0,4.1,99.1,1020.4,293.9,1.5,1.8,296.3,0.00,4.0,11.3,"05:00:24",1
"17/11/06","05:20",0.0,3.9,99.3,1019.9,305.3,1.7,2.5,315.0,0.00,3.8,11.3,"05:13:48",1
"17/11/06","05:30",0.0,3.8,99.0,1020.4,297.2,1.7,2.2,303.1,0.00,3.7,11.2,"05:21:30",1
"17/11/06","05:40",0.0,3.8,99.8,1020.6,308.0,2.3,3.2,316.3,0.00,3.8,11.0,"05:37:50",1
"17/11/06","05:50",0.0,3.9,99.0,1020.6,307.7,2.3,2.7,311.4,0.00,3.8,11.1,"05:41:12",1
"17/11/06","06:00",0.0,3.7,99.3,1020.6,289.9,1.5,2.0,311.0,0.00,3.6,11.1,"05:50:16",1
"17/11/06","06:10",0.0,3.7,99.6,1020.6,300.8,2.0,2.4,315.4,0.00,3.7,11.0,"06:04:20",1
"17/11/06","06:20",0.0,3.6,99.2,1020.4,296.4,1.7,2.2,310.1,0.00,3.5,11.0,"06:10:08",1
"17/11/06","06:30",0.0,3.6,99.4,1021.1,293.3,1.5,2.0,309.9,0.00,3.6,10.8,"06:21:36",1
"17/11/06","06:40",0.0,3.7,100.0,1020.8,297.1,2.0,2.8,308.5,0.00,3.7,11.1,"06:38:00",1
"17/11/06","06:50",0.0,3.9,99.8,1021.1,285.7,1.3,1.7,288.3,0.00,3.9,10.7,"06:40:24",1
"17/11/06","07:00",0.0,4.4,100.0,1020.8,278.5,1.2,1.4,289.2,0.00,4.4,11.0,"06:52:40",1
"17/11/06","07:10",0.0,5.4,99.8,1021.1,282.0,1.2,1.6,303.4,0.00,5.4,10.8,"07:09:20",1
"17/11/06","07:20",0.0,6.1,99.8,1021.5,298.7,1.6,1.9,310.0,0.01,6.1,10.9,"07:14:56",1
"17/11/06","07:30",0.0,6.8,99.3,1021.8,293.0,1.2,1.7,314.7,0.01,6.7,10.9,"07:24:10",1
"17/11/06","07:40",0.0,7.2,98.4,1022.0,265.0,0.8,1.2,281.5,0.02,7.0,10.9,"07:31:28",1
"17/11/06","07:50",0.0,7.8,97.5,1022.3,214.5,0.3,0.6,186.5,0.04,7.5,11.0,"07:46:08",1
"17/11/06","08:00",0.0,8.7,93.5,1022.7,248.9,0.3,0.6,214.3,0.06,7.8,11.2,"07:56:56",1
"17/11/06","08:10",0.0,8.7,93.0,1022.5,269.8,0.6,1.3,312.8,0.07,7.7,11.1,"08:04:16",1
"17/11/06","08:20",0.0,9.5,90.0,1022.5,253.6,0.5,0.9,244.7,0.12,8.0,11.3,"08:16:16",1
"17/11/06","08:30",0.0,10.2,88.6,1023.0,253.9,0.5,1.0,156.2,0.12,8.4,11.3,"08:21:04",1
"17/11/06","08:40",0.0,10.5,86.1,1023.2,147.5,0.3,0.8,258.8,0.16,8.3,11.6,"08:34:08",1
"17/11/06","08:50",0.0,10.8,84.0,1023.2,288.7,0.6,1.2,125.7,0.19,8.2,11.9,"08:40:08",1
"17/11/06","09:00",0.0,11.1,82.1,1023.2,254.3,1.0,1.4,238.9,0.22,8.2,11.9,"08:52:24",1
"17/11/06","09:10",0.0,11.5,81.0,1023.4,272.0,1.0,1.7,292.1,0.25,8.4,12.0,"09:01:44",1
"17/11/06","09:20",0.0,11.9,79.5,1023.2,253.1,0.6,1.6,235.2,0.27,8.5,12.2,"09:15:36",1
"17/11/06","09:30",0.0,12.6,75.8,1023.2,264.3,0.6,1.3,308.9,0.28,8.5,12.4,"09:22:24",1
"17/11/06","09:40",0.0,12.9,73.7,1023.4,249.0,0.6,1.6,127.4,0.30,8.4,12.5,"09:31:44",1
"17/11/06","09:50",0.0,13.6,71.5,1023.2,247.2,0.6,1.2,248.6,0.32,8.6,12.7,"09:41:28",1
"17/11/06","10:00",0.0,14.1,69.2,1023.4,235.5,0.7,1.3,228.8,0.34,8.6,12.9,"09:58:56",1
"17/11/06","10:10",0.0,14.4,69.2,1023.2,232.4,0.7,1.4,236.9,0.36,8.9,13.3,"10:00:56",1
"17/11/06","10:20",0.0,15.1,68.8,1023.2,227.3,0.8,2.0,226.4,0.37,9.5,13.5,"10:16:40",1
"17/11/06","10:30",0.0,15.3,65.3,1023.0,224.3,0.8,1.9,236.7,0.39,8.9,13.8,"10:26:08",1
"17/11/06","10:40",0.0,15.8,62.3,1022.5,225.6,0.8,1.9,213.4,0.40,8.7,13.7,"10:35:20",1
"17/11/06","10:50",0.0,16.6,62.4,1022.0,168.2,0.6,1.4,228.6,0.41,9.4,14.1,"10:49:28",1
"17/11/06","11:00",0.0,16.5,60.7,1022.3,180.2,0.8,2.2,224.6,0.41,8.9,14.4,"10:59:36",1
"17/11/06","11:10",0.0,17.1,61.3,1021.5,184.3,0.8,2.6,208.9,0.42,9.6,14.5,"11:02:32",1
"17/11/06","11:20",0.0,17.2,60.8,1021.1,204.8,1.0,2.7,206.4,0.43,9.6,14.6,"11:12:56",1
"17/11/06","11:30",0.0,17.3,58.1,1021.1,190.2,1.5,3.2,233.9,0.43,9.0,14.9,"11:26:08",1
"17/11/06","11:40",0.0,17.3,59.6,1020.8,201.4,1.6,3.3,202.0,0.43,9.4,15.2,"11:31:12",1
"17/11/06","11:50",0.0,17.4,58.9,1020.4,205.6,1.5,3.1,214.0,0.44,9.3,15.3,"11:40:56",1
"17/11/06","12:00",0.0,17.6,60.0,1020.1,203.1,1.3,2.2,210.8,0.44,9.8,15.6,"11:50:48",1
"17/11/06","12:10",0.0,17.9,58.4,1019.9,212.9,1.3,3.3,203.5,0.44,9.7,15.8,"12:05:36",1
"17/11/06","12:20",0.0,18.5,58.4,1019.4,211.1,1.1,3.2,214.3,0.43,10.2,16.0,"12:11:28",1
"17/11/06","12:30",0.0,18.5,56.3,1019.4,211.2,1.2,3.3,196.8,0.43,9.7,16.1,"12:21:36",1
"17/11/06","12:40",0.0,18.9,56.8,1019.0,174.0,1.2,3.5,210.0,0.42,10.2,16.3,"12:38:48",1
"17/11/06","12:50",0.0,18.8,56.5,1018.7,221.2,1.1,2.8,110.2,0.41,10.0,16.5,"12:49:12",1
"17/11/06","13:00",0.0,18.8,57.9,1018.7,182.3,1.0,3.1,135.8,0.40,10.4,16.6,"12:50:32",1
"17/11/06","13:10",0.0,18.9,58.5,1018.7,127.5,1.2,2.4,130.9,0.39,10.6,16.7,"13:01:20",1
"17/11/06","13:20",0.0,19.3,58.9,1018.5,123.0,0.8,2.0,109.1,0.37,11.1,16.9,"13:17:04",1
"17/11/06","13:30",0.0,19.9,54.7,1018.2,198.0,0.7,2.6,111.1,0.36,10.6,17.1,"13:22:08",1
"17/11/06","13:40",0.0,19.6,56.8,1018.0,113.0,0.8,2.9,97.3,0.34,10.8,17.0,"13:38:32",1
"17/11/06","13:50",0.0,19.7,55.6,1017.8,152.9,1.0,2.4,209.9,0.32,10.6,17.2,"13:42:56",1
"17/11/06","14:00",0.0,20.4,56.1,1017.3,330.4,0.5,1.6,304.6,0.31,11.4,17.2,"13:58:48",1
"17/11/06","14:10",0.0,20.5,52.0,1018.0,310.8,1.0,2.2,6.3,0.29,10.4,17.4,"14:08:16",1
"17/11/06","14:20",0.0,20.3,52.4,1017.5,355.9,1.2,2.4,89.0,0.27,10.3,17.4,"14:13:04",1
"17/11/06","14:30",0.0,20.5,54.8,1017.3,302.1,1.0,2.9,336.5,0.25,11.1,17.5,"14:24:40",1
"17/11/06","14:40",0.0,20.5,54.1,1017.3,258.9,0.8,2.4,321.9,0.23,11.0,17.5,"14:38:48",1
"17/11/06","14:50",0.0,20.6,51.4,1017.3,252.4,1.6,3.6,229.3,0.21,10.3,17.5,"14:42:00",1
"17/11/06","15:00",0.0,20.6,54.3,1017.3,228.8,1.1,3.5,304.9,0.19,11.1,17.6,"14:52:40",1
"17/11/06","15:10",0.0,20.3,50.5,1017.1,218.1,1.0,2.0,237.4,0.16,9.7,17.3,"15:01:28",1
"17/11/06","15:20",0.0,20.2,50.6,1017.5,209.3,1.6,3.6,194.2,0.14,9.7,17.5,"15:12:56",1
"17/11/06","15:30",0.0,20.0,56.8,1017.5,219.5,1.3,3.9,232.5,0.12,11.2,17.3,"15:20:48",1
"17/11/06","15:40",0.0,19.7,57.6,1017.5,220.9,1.2,2.5,232.9,0.09,11.1,17.4,"15:31:44",1
"17/11/06","15:50",0.0,19.6,48.8,1017.3,228.2,1.7,3.5,229.2,0.07,8.6,17.3,"15:49:52",1
"17/11/06","16:00",0.0,19.4,52.9,1017.8,236.0,1.5,2.6,209.5,0.05,9.6,17.1,"15:54:56",1
"17/11/06","16:10",0.0,19.0,55.8,1017.8,261.3,1.1,2.5,236.5,0.03,10.0,16.9,"16:05:20",1
"17/11/06","16:20",0.0,18.5,57.2,1017.8,289.2,1.0,1.4,282.2,0.02,9.9,16.9,"16:10:02",1
"17/11/06","16:30",0.0,17.5,61.6,1017.5,290.4,1.1,1.7,330.6,0.00,10.1,16.8,"16:20:32",1
"17/11/06","16:40",0.0,16.2,67.1,1017.5,302.9,1.1,1.6,325.0,0.00,10.1,16.9,"16:36:40",1
"17/11/06","16:50",0.0,15.1,72.1,1017.5,276.5,0.8,1.9,327.3,0.00,10.2,16.5,"16:41:28",1
"17/11/06","17:00",0.0,14.7,73.8,1017.5,271.2,1.1,1.6,249.2,0.00,10.1,16.3,"16:51:36",1
"17/11/06","17:10",0.0,14.3,76.1,1017.5,296.9,1.0,1.8,332.6,0.00,10.2,16.2,"17:07:36",1
"17/11/06","17:20",0.0,13.7,77.0,1017.5,294.4,1.0,2.0,316.2,0.00,9.8,16.2,"17:11:12",1
"17/11/06","17:30",0.0,13.2,80.4,1017.5,289.6,1.1,1.6,290.1,0.00,9.9,16.1,"17:28:06",1
"17/11/06","17:40",0.0,13.2,79.8,1017.5,289.8,1.3,2.1,304.5,0.00,9.8,15.8,"17:30:44",1
"17/11/06","17:50",0.0,13.2,79.6,1017.8,282.1,1.5,2.1,307.2,0.00,9.8,15.6,"17:45:12",1
"17/11/06","18:00",0.0,12.9,80.0,1017.8,289.1,1.5,1.8,302.7,0.00,9.6,15.5,"17:57:42",1
"17/11/06","18:10",0.0,12.6,81.9,1018.0,299.4,1.6,2.0,312.1,0.00,9.6,15.4,"18:01:58",1
"17/11/06","18:20",0.0,12.4,82.3,1017.8,292.9,1.3,1.7,318.7,0.00,9.5,15.5,"18:13:08",1
"17/11/06","18:30",0.0,12.1,83.0,1018.0,288.9,1.2,1.4,306.5,0.00,9.3,15.4,"18:23:02",1
"17/11/06","18:40",0.0,11.7,83.6,1018.2,315.1,1.5,1.9,311.0,0.00,9.1,15.3,"18:36:56",1
"17/11/06","18:50",0.0,11.2,87.6,1018.2,325.3,1.6,2.2,322.6,0.00,9.3,15.0,"18:40:28",1
"17/11/06","19:00",0.0,11.1,88.1,1018.0,301.8,1.2,2.0,311.2,0.00,9.2,15.0,"18:51:24",1
"17/11/06","19:10",0.0,11.2,87.1,1018.2,294.0,1.2,2.4,321.8,0.00,9.2,14.8,"19:03:54",1
"17/11/06","19:20",0.0,10.7,86.9,1018.5,316.5,1.1,1.7,323.6,0.00,8.6,14.9,"19:11:42",1
"17/11/06","19:30",0.0,10.5,90.3,1018.2,312.9,1.6,2.0,322.2,0.00,9.0,14.5,"19:20:08",1
"17/11/06","19:40",0.0,10.5,90.9,1018.5,300.1,1.1,1.6,314.3,0.00,9.1,14.7,"19:33:52",1
"17/11/06","19:50",0.0,10.6,89.9,1019.0,295.1,1.2,1.8,312.1,0.00,9.1,14.5,"19:48:42",1
"17/11/06","20:00",0.0,10.4,89.5,1018.7,320.7,1.3,1.8,327.9,0.00,8.8,14.4,"19:54:32",1
"17/11/06","20:10",0.0,10.2,91.5,1018.7,306.4,1.3,1.9,324.4,0.00,8.9,14.3,"20:03:04",1
"17/11/06","20:20",0.0,10.1,91.6,1018.7,296.4,1.3,2.2,333.1,0.00,8.8,14.3,"20:11:20",1
"17/11/06","20:30",0.0,9.7,91.1,1018.7,315.0,0.8,1.8,301.9,0.00,8.4,14.2,"20:20:52",1
"17/11/06","20:40",0.0,9.5,93.0,1018.2,320.3,1.6,2.1,318.9,0.00,8.5,14.1,"20:35:12",1
"17/11/06","20:50",0.0,9.5,94.7,1018.5,310.6,1.6,2.0,319.2,0.00,8.7,14.0,"20:49:28",1
"17/11/06","21:00",0.0,9.4,94.1,1019.0,316.3,1.5,2.2,322.1,0.00,8.5,14.2,"20:51:14",1
"17/11/06","21:10",0.0,9.0,94.1,1019.0,300.0,1.0,2.0,321.7,0.00,8.1,13.9,"21:00:08",1
"17/11/06","21:20",0.0,8.8,96.2,1019.0,302.4,1.3,1.9,321.2,0.00,8.3,13.7,"21:12:12",1
"17/11/06","21:30",0.0,8.9,95.6,1019.0,294.4,1.3,2.1,317.1,0.00,8.3,13.7,"21:29:02",1
"17/11/06","21:40",0.0,8.8,95.2,1019.2,315.8,1.7,2.4,333.4,0.00,8.1,13.8,"21:35:50",1
"17/11/06","21:50",0.0,8.6,96.4,1018.5,306.2,1.6,2.0,314.7,0.00,8.1,13.5,"21:49:08",1
"17/11/06","22:00",0.0,8.5,97.5,1018.7,294.0,1.3,1.9,314.1,0.00,8.2,13.7,"21:51:14",1
"17/11/06","22:10",0.0,8.8,96.3,1018.7,317.2,1.6,2.2,319.8,0.00,8.3,13.5,"22:05:28",1
"17/11/06","22:20",0.0,8.5,96.6,1018.2,308.3,1.5,2.2,331.1,0.00,8.0,13.6,"22:10:08",1
"17/11/06","22:30",0.0,8.2,96.9,1018.2,308.4,1.1,2.4,319.0,0.00,7.8,13.4,"22:29:28",1
"17/11/06","22:40",0.0,8.0,96.9,1018.2,319.7,1.8,2.8,326.2,0.00,7.6,13.3,"22:32:00",1
"17/11/06","22:50",0.0,8.0,97.0,1018.5,309.9,1.6,2.1,316.5,0.00,7.6,13.3,"22:43:52",1
"17/11/06","23:00",0.0,8.4,98.8,1018.5,302.8,1.6,2.2,320.3,0.00,8.3,13.3,"22:54:48",1
"17/11/06","23:10",0.0,8.7,96.4,1018.5,306.5,1.3,2.0,307.4,0.00,8.2,13.2,"23:02:08",1
"17/11/06","23:20",0.0,8.5,98.1,1018.7,311.6,1.5,2.5,315.4,0.00,8.3,13.1,"23:16:56",1
"17/11/06","23:30",0.0,8.5,96.6,1018.7,300.3,1.0,1.8,321.4,0.00,8.0,13.2,"23:29:44",1
"17/11/06","23:40",0.0,8.2,97.4,1018.5,313.9,1.8,2.5,321.7,0.00,7.9,13.3,"23:35:36",1
"17/11/06","23:50",0.0,8.2,97.9,1018.2,313.3,1.5,2.0,318.8,0.00,7.9,13.2,"23:40:56",1
"17/11/06","24:00",0.0,8.0,98.1,1018.7,299.0,1.3,1.7,316.5,0.00,7.8,13.1,"23:56:08",1
